SERVIS 2 DEB, 43394

Orbit data source: Space-Track

SERVIS 2 DEB, 43394 is space debris in SSO originally from a launch on Wed, 02 Jun 2010 UTC launched from the Plesetsk Missile And Space Complex (PKMTR). Debris objects in space refer to the collection of defunct objects orbiting the Earth. Examples of debris include non-operational satellites, rocket bodies, and fragments generated from explosions, collisions, or faulty payload assembly.

Loading next visibility...
SERVIS 2 DEB details
Identifier
43394, 2010-023D
Orbit
SSO
Last TLE update10 hours ago
Origin
Flag of CISJ-spacesystems (CIS)
ManufacturerMELCO
MissionSpacecraft
Bus & MotorUnknown
MassUnknown
Launch date (UTC)
2010-06-02 (15 years ago)
Launch vehicleUnknown
Launch site
Plesetsk Missile And Space Complex (PKMTR)
Object type
Payload
Rocket body
Debris
Shape & HBRUnknown
Radar Cross SectionSmall (<0.1 m²)

Expand to show TLE details & history

TLE from 10 hours ago
0 SERVIS 2 DEB
1 43394U 10023D   24361.19900317  .00014999  00000-0  23069-1 0  9998
2 43394 100.5083 345.2587 0018806 235.9247 124.0100 13.51409136 24749
Epoch: 2024-12-26T04:46Z
Definitive object data (Epoch: 2024-12-26T04:46:33.873Z)
Latitude-0.00009°
Longitude178.43575°
Altitude1,077.688 km
Speed7.309 km/s
True Right ascension23h 01m 02s
True Declination0° 00' 00"
Sunlit
Object was in daylight at TLE epoch
Visualization TLE readout
Latitude21.0728°
Longitude2.93862°
Altitude1,066.166 km
Speed7.322 km/s
Apparent Right ascension08h 22m 11s
Apparent Declination-18° 17' 08"
Sunlit
Object is in daylight
Visualization observer readout
Local Sidereal Time13:48:29
Azimuth250.645° W
Elevation-5.428°
Doppler factor1
Orbital elements
Apogee altitude1,078.418 km
Perigee altitude1,050.425 km
Semi-major axis7,442.558 km
Eccentricity0.0018806
Inclination100.5083°
RAAN345.2587°
Arg. of periapsis235.9247°
True anomaly124.1884°
Mean anomaly124.01°
Eccentric anomaly124.09922°
Mean motion3.38034 °/min
BSTAR0.023069
Orbital period106.5 mins
Loading maneuver chart data...
Loading historical data...
Loading historical data...
Loading historical data...
Loading historical data...
Loading historical data...
Loading historical data...
Loading historical data...
Other satellites on launch #23 in the year 2010 (2010-06-02 UTC)

SERVIS 2 DEB Visibility forecast

Observer location: undefined°, undefined

Span
Click to sort rows by Start time (UTC) header in descending order
Start Az.
Max El. time (UTC)
Max El. Az.
Max El.
End time (UTC)
End Az.
11 mins2024-12-26 22:39:38.434Z148.105° SSE2024-12-26 22:44:38.434Z91.432° ESE41.873°2024-12-26 22:50:38.434Z351.643° N
7 mins2024-12-27 00:27:38.434Z235.051° WSW2024-12-27 00:30:38.434Z268.785° W19.449°2024-12-27 00:34:38.434Z309.173° NW
11 mins2024-12-27 11:35:38.434Z31.25° NE2024-12-27 11:40:38.434Z99.397° ESE37.052°2024-12-27 11:46:38.434Z174.268° S
9 mins2024-12-27 13:21:38.434Z344.017° N2024-12-27 13:25:38.434Z293.108° NW25.967°2024-12-27 13:30:38.434Z241.839° WSW
|